星链-5928 (STARLINK-5928 )

导读 | 豆包AI

STARLINK-5928是美国太空探索技术公司SpaceX星链卫星互联网项目的卫星,于2023年3月17日发射入轨,属于星链低轨星座组网卫星的一员,服务全球卫星互联网接入。它运行在近地轨道,依托星链大规模星座部署,为偏远地区、移动场景等提供高速低延迟的网络连接,支撑星链的通信服务覆盖能力。

基本信息
目录编号:
55958
目录名称:
STARLINK-5928
国际标识:
2023-037AW
轨道中心:
EARTH
卫星名称:
星链-5928
卫星全名:
星链-5928 (STARLINK-5928 )
卫星状态:
在轨 (已飞行1140 天)
发射日期:
2023-03-17 UTC
国别 :
美国 (US)
星等 :
--
轨道信息
数据来源 国际轨道数据
星历时间: 2026-04-30T12:00:09+0800
6小时前
查看轨道信息
半长轴: 6950.193km
偏心率: 0.0003502
轨道倾角: 69.999°
近地点辐角 267.953°
升交点赤经 134.679°
平近点角 92.123°
近地点: 569.622km
远地点: 574.49km
周期: 96.107分钟
每日圈数: 14.9833
详细信息
固有亮度:
5
最大亮度:
2.5
卫星平台:
Starlink v1.5
覆盖范围:
全球
运营商:
太空探索技术公司
运营商所在国:
美国
制造商(研发单位):
太空探索技术公司
制造商所在国:
美国
使用方式:
暂无
卫星简介
星链(Starlink)计划是由太空探索技术公司(SpaceX)提出的一个巨型低轨卫星互联网星座项目,计划在2019年至2024年间在太空搭建由约1.2万颗卫星组成的“星链”网络,其中1584颗将部署在地球上空550千米处的近地轨道,并从2020年开始工作。该卫星仍在工作。
2D轨道图
3D轨道图
轨道高度分析图
轨道倾角分析图
轨道综合分析图
查看轨道综合分析图